Weather History for Viroqua, WI

Change the Weather History Date:

Saturday, July 20, 2013

  Actual Average (KLSE) Record (KLSE)
Temperature  
Mean Temperature 71 °F 74 °F  
Max Temperature 81 °F 84 °F 103 °F (1901)
Min Temperature 62 °F 63 °F 49 °F (1966)
Degree Days  
Heating Degree Days 0 0  
Month to date heating degree days 0  
Since 1 July heating degree days 0  
Cooling Degree Days 6 9  
Month to date cooling degree days 179  
Year to date cooling degree days 393  
Growing Degree Days 21 (Base 50)    
Moisture  
Dew Point 60 °F    
Average Humidity 67    
Maximum Humidity 97    
Minimum Humidity 48    
Precipitation  
Precipitation 0.00 in 0.14 in 2.60 in (1883)
Month to date precipitation 2.76  
Year to date precipitation 18.17  
Snow  
Snow 0.00 in 0.00 in 0.00 in (2002)
Month to date snowfall 0.0  
Since 1 July snowfall 0.0  
Snow Depth -    
Sea Level Pressure  
Sea Level Pressure 29.93 in    
Wind  
Wind Speed 5 mph (WNW)    
Max Wind Speed 9 mph    
Max Gust Speed -    
Visibility 10 miles    
Events      
T = Trace of Precipitation, MM = Missing Value Source: NWS Daily Summary

Daily Weather History Graph

Daily Weather History Graph

Search for Another Location

Airport:

Trip Planner

Search our weather history database for the weather conditions in past years. The results will help you decide how hot, cold, wet, or windy it might be!

Date:

Astronomy

Jul. 20, 2013 Rise Set
Actual Time 5:40 AM CDT 8:38 PM CDT
Civil Twilight 5:06 AM CDT 9:12 PM CDT
Nautical Twilight 4:23 AM CDT 9:55 PM CDT
Astronomical Twilight 3:32 AM CDT 10:46 PM CDT
Moon 6:41 PM CDT (7/20) 3:21 AM CDT (7/20)
Length of Visible Light 16h 05m
Length of Day
14h 57m
Waxing Gibbous, 94% of the Moon is Illuminated
Jul 20
Waxing Gibbous
Jul 22
Full
Jul 29
Last Quarter
Aug 6
New
Aug 14
First Quarter

Hourly Weather History & Observations

Time (CDT) Temp. Heat Index Dew Point Humidity Pressure Visibility Wind Dir Wind Speed Gust Speed Precip Events Conditions
12:15 AM 68.7 °F - 59.2 °F 72% 29.91 in 10.0 mi WSW 3.5 mph - N/A   Clear
12:35 AM 68.7 °F - 59.0 °F 71% 29.91 in 10.0 mi WSW 4.6 mph - N/A   Clear
12:55 AM 68.9 °F - 58.6 °F 70% 29.91 in 10.0 mi WSW 3.5 mph - N/A   Clear
1:15 AM 68.2 °F - 58.6 °F 71% 29.91 in 10.0 mi WSW 4.6 mph - N/A   Clear
1:35 AM 67.1 °F - 58.8 °F 75% 29.91 in 10.0 mi WSW 4.6 mph - N/A   Clear
1:55 AM 66.2 °F - 59.0 °F 78% 29.91 in 10.0 mi WSW 4.6 mph - N/A   Clear
2:15 AM 65.8 °F - 59.4 °F 80% 29.91 in 10.0 mi WSW 4.6 mph - N/A   Clear
2:35 AM 66.0 °F - 59.9 °F 81% 29.90 in 10.0 mi West 5.8 mph - N/A   Clear
2:55 AM 65.3 °F - 59.9 °F 83% 29.90 in 10.0 mi West 3.5 mph - N/A   Clear
3:15 AM 64.4 °F - 59.9 °F 85% 29.90 in 10.0 mi West 4.6 mph - N/A   Clear
3:35 AM 63.9 °F - 59.5 °F 86% 29.90 in 10.0 mi West 4.6 mph - N/A   Clear
3:55 AM 63.9 °F - 59.9 °F 87% 29.90 in 10.0 mi WSW 5.8 mph - N/A   Clear
4:15 AM 64.4 °F - 59.9 °F 85% 29.90 in 10.0 mi WSW 4.6 mph - N/A   Clear
4:35 AM 64.4 °F - 59.9 °F 85% 29.89 in 10.0 mi SW 3.5 mph - N/A   Clear
4:55 AM 63.7 °F - 59.9 °F 87% 29.89 in 10.0 mi WSW 3.5 mph - N/A   Clear
5:15 AM 63.0 °F - 59.5 °F 89% 29.89 in 10.0 mi Calm Calm - N/A   Clear
5:35 AM 62.6 °F - 60.1 °F 91% 29.90 in 10.0 mi WSW 5.8 mph - N/A   Clear
5:55 AM 62.1 °F - 60.8 °F 96% 29.91 in 10.0 mi WSW 5.8 mph - N/A   Clear
6:15 AM 62.8 °F - 61.7 °F 96% 29.91 in 10.0 mi SW 4.6 mph - N/A   Clear
6:35 AM 63.0 °F - 62.1 °F 97% 29.91 in 10.0 mi SW 3.5 mph - N/A   Clear
6:55 AM 64.0 °F - 62.8 °F 96% 29.92 in 10.0 mi SW 4.6 mph - N/A   Clear
7:15 AM 65.5 °F - 63.7 °F 94% 29.91 in 10.0 mi SW 4.6 mph - N/A   Clear
7:35 AM 66.9 °F - 63.7 °F 89% 29.92 in 10.0 mi West 4.6 mph - N/A   Clear
7:55 AM 68.4 °F - 62.1 °F 80% 29.93 in 10.0 mi West 4.6 mph - N/A   Clear
8:15 AM 69.4 °F - 61.3 °F 75% 29.94 in 10.0 mi West 4.6 mph - N/A   Clear
8:35 AM 70.3 °F - 61.9 °F 74% 29.94 in 10.0 mi NW 5.8 mph - N/A   Clear
9:15 AM 72.7 °F - 61.7 °F 68% 29.95 in 10.0 mi NNW 6.9 mph - N/A   Clear
9:16 AM 73.4 °F - 62.6 °F 69% 29.95 in 10.0 mi NW 6.9 mph - N/A   Clear
9:35 AM 73.8 °F - 60.1 °F 62% 29.94 in 10.0 mi NNW 8.1 mph - N/A   Clear
9:55 AM 75.0 °F - 59.7 °F 59% 29.95 in 10.0 mi North 5.8 mph - N/A   Clear
10:15 AM 75.4 °F - 59.4 °F 57% 29.95 in 10.0 mi North 3.5 mph - N/A   Scattered Clouds
10:35 AM 76.8 °F - 59.4 °F 55% 29.95 in 10.0 mi NNW 5.8 mph - N/A   Scattered Clouds
10:55 AM 76.3 °F - 58.1 °F 53% 29.95 in 10.0 mi NNW 8.1 mph - N/A   Scattered Clouds
11:15 AM 77.2 °F - 59.9 °F 55% 29.95 in 10.0 mi West 5.8 mph - N/A   Mostly Cloudy
11:35 AM 78.1 °F - 59.5 °F 53% 29.95 in 10.0 mi West 5.8 mph - N/A   Scattered Clouds
11:55 AM 78.8 °F - 59.7 °F 52% 29.95 in 10.0 mi WNW 5.8 mph - N/A   Clear
12:15 PM 78.4 °F - 59.0 °F 51% 29.96 in 10.0 mi NW 8.1 mph - N/A   Clear
12:35 PM 79.0 °F - 60.6 °F 53% 29.96 in 10.0 mi West 9.2 mph - N/A   Clear
12:55 PM 78.8 °F - 60.4 °F 53% 29.96 in 10.0 mi West 5.8 mph - N/A   Clear
1:15 PM 79.5 °F - 58.8 °F 49% 29.95 in 10.0 mi West 8.1 mph - N/A   Clear
1:35 PM 79.5 °F - 58.3 °F 48% 29.94 in 10.0 mi NW 8.1 mph - N/A   Clear
1:55 PM 79.3 °F - 59.2 °F 50% 29.94 in 10.0 mi NW 5.8 mph - N/A   Clear
2:15 PM 77.9 °F - 60.1 °F 54% 29.94 in 10.0 mi NW 6.9 mph - N/A   Clear
2:35 PM 77.9 °F - 60.3 °F 54% 29.94 in 10.0 mi NW 6.9 mph - N/A   Clear
2:55 PM 78.1 °F - 61.2 °F 56% 29.94 in 10.0 mi NW 8.1 mph - N/A   Clear
3:15 PM 79.7 °F - 60.4 °F 52% 29.94 in 10.0 mi WNW 6.9 mph - N/A   Clear
3:35 PM 80.4 °F 81.5 °F 61.7 °F 53% 29.94 in 10.0 mi NW 5.8 mph - N/A   Clear
3:55 PM 80.4 °F 81.3 °F 60.6 °F 51% 29.94 in 10.0 mi NW 8.1 mph - N/A   Scattered Clouds
4:15 PM 79.0 °F - 61.7 °F 55% 29.94 in 10.0 mi NW 6.9 mph - N/A   Mostly Cloudy
4:35 PM 80.1 °F 80.9 °F 60.1 °F 50% 29.94 in 10.0 mi WNW 8.1 mph - N/A   Scattered Clouds
4:55 PM 80.8 °F 81.3 °F 59.4 °F 48% 29.93 in 10.0 mi NNW 6.9 mph - N/A   Clear
5:15 PM 79.7 °F - 59.7 °F 50% 29.93 in 10.0 mi NW 8.1 mph - N/A   Scattered Clouds
5:35 PM 79.7 °F - 59.0 °F 49% 29.92 in 10.0 mi WNW 5.8 mph - N/A   Scattered Clouds
5:55 PM 79.2 °F - 59.0 °F 50% 29.92 in 10.0 mi NNW 4.6 mph - N/A   Clear
6:15 PM 79.2 °F - 58.3 °F 49% 29.91 in 10.0 mi NW 6.9 mph - N/A   Clear
6:35 PM 78.6 °F - 58.1 °F 49% 29.91 in 10.0 mi NW 4.6 mph - N/A   Clear
6:55 PM 78.3 °F - 57.2 °F 48% 29.91 in 10.0 mi NW 4.6 mph - N/A   Clear
7:15 PM 76.8 °F - 58.8 °F 54% 29.92 in 10.0 mi NNW 3.5 mph - N/A   Clear
7:35 PM 76.3 °F - 59.0 °F 55% 29.93 in 10.0 mi Calm Calm - N/A   Clear
7:55 PM 77.0 °F - 58.5 °F 53% 29.93 in 10.0 mi Calm Calm - N/A   Clear
8:15 PM 75.9 °F - 59.7 °F 57% 29.93 in 10.0 mi Calm Calm - N/A   Clear
8:35 PM 73.4 °F - 61.3 °F 66% 29.94 in 10.0 mi Calm Calm - N/A   Scattered Clouds
8:55 PM 74.1 °F - 59.9 °F 61% 29.94 in 10.0 mi Calm Calm - N/A   Mostly Cloudy
9:15 PM 73.8 °F - 59.0 °F 60% 29.94 in 10.0 mi Calm Calm - N/A   Scattered Clouds
9:35 PM 71.4 °F - 61.2 °F 70% 29.95 in 10.0 mi Calm Calm - N/A   Scattered Clouds
9:55 PM 71.4 °F - 60.4 °F 68% 29.95 in 10.0 mi Calm Calm - N/A   Scattered Clouds
10:15 PM 70.9 °F - 60.1 °F 69% 29.95 in 10.0 mi ENE 3.5 mph - N/A   Clear
10:35 PM 70.9 °F - 59.9 °F 68% 29.95 in 10.0 mi ENE 3.5 mph - N/A   Scattered Clouds
10:55 PM 68.9 °F - 60.3 °F 74% 29.95 in 10.0 mi East 3.5 mph - N/A   Scattered Clouds
11:15 PM 70.5 °F - 60.1 °F 69% 29.96 in 10.0 mi Calm Calm - N/A   Mostly Cloudy
11:35 PM 71.6 °F - 59.9 °F 66% 29.96 in 10.0 mi Calm Calm - N/A   Mostly Cloudy
11:55 PM 68.9 °F - 60.8 °F 75% 29.96 in 10.0 mi East 3.5 mph - N/A   Mostly Cloudy